Regional Weather Roundup
Issued by NWS

Home | Current Version | Previous Version | Graphics & Text | Print | Product List | Glossary Off
Versions: 1 2 3 4 5 6 7 8 9 10 11 12 13 14 15 16 17 18 19 20 21 22 23 24 25 26 27 28 29 30 31 32 33 34 35 36 37 38 39 40 41 42 43 44 45 46 47 48 49 50

000
ASUS43 KTOP 261459
RWRKS

WEATHER ROUNDUP FOR KANSAS
NATIONAL WEATHER SERVICE GOODLAND KS
1000 AM CDT TUE SEP 26 2017

NOTE:  "FAIR" INDICATES FEW OR NO CLOUDS BELOW 12,000 FEET WITH NO
SIGNIFICANT WEATHER AND/OR OBSTRUCTIONS TO VISIBILITY.

KSZ001>006-013>018-027>032-041>047-261600-
NORTHWEST KANSAS

CITY           SKY/WX    TMP DP  RH WIND       PRES   REMARKS
GOODLAND       CLOUDY    48  46  93 NW7       30.19R
HAYS           CLOUDY    52  47  83 N15       30.18R
HILL CITY      CLOUDY    50  47  89 N12       30.20R
RUSSELL        CLOUDY    53  48  83 N12       30.15R
$$

KSZ061>065-074>080-084>089-261600-
SOUTHWEST KANSAS

CITY           SKY/WX    TMP DP  RH WIND       PRES   REMARKS
DODGE CITY     CLOUDY    51  49  92 N13       30.17R
ELKHART          N/A     49  49 100 N9          N/A
GARDEN CITY    CLOUDY    49  47  93 N12       30.18R
GREAT BEND     CLOUDY    52  50  93 NW12      30.16R
LIBERAL        CLOUDY    52  49  89 N16       30.17R
$$

KSZ066>073-081>083-090>101-261600-
SOUTHEAST KANSAS

CITY           SKY/WX    TMP DP  RH WIND       PRES   REMARKS
CHANUTE        CLOUDY    69  65  86 N8        30.05R
COFFEYVILLE    CLOUDY    69  67  93 N7        30.03R
HUTCHINSON     CLOUDY    56  55  97 N17       30.11S
MEDICINE LODGE   N/A     56  51  84 N15       30.12R
NEWTON         CLOUDY    56  54  93 N12       30.11R
PARSONS        LGT RAIN  69  66  90 MISG      30.05R
WICHITA INTL   CLOUDY    58  57  97 N12       30.10R
WICHITA JABRA  CLOUDY    58  58 100 N14       30.09R
WICHITA MCCONL CLOUDY    57  55  94 N14       30.09R
WINFIELD       CLOUDY    62  61  96 N13       30.09R
$$

KSZ007>012-019>026-033>040-048>060-102>105-261600-
NORTHEAST KANSAS

CITY           SKY/WX    TMP DP  RH WIND       PRES   REMARKS
CONCORDIA      CLOUDY    53  51  93 N12       30.14R
EMPORIA        CLOUDY    60  59  96 NW9       30.08R
LAWRENCE       CLOUDY    63  63 100 NW9       30.06R
MANHATTAN      CLOUDY    58  54  86 VRB5      30.12R
OLATHE IND     CLOUDY    68  66  93 NW7       30.05R
OLATHE EXE     CLOUDY    67  66  97 NW6       30.05R
SALINA         CLOUDY    56  53  90 NW12      30.14R
TOPEKA BILLARD CLOUDY    62  61  96 NW10      30.07R FOG
TOPEKA FORBES  CLOUDY    62  61  96 NW12      30.07R FOG
$$



USA.gov is the U.S. government's official web portal to all federal, state and local government web resources and services.